Vorticity
4 4 5 6 5 4 4 4 3 6 6 1 -1 1 6 9 9 11 14 11 5 3 1 -0 4 9 11 9 5 6 10 9 6 6 7 9 9 5 3 5 8 9 8 7 7 8 7 6 6 8 9 6 2 6 11 12 13 13 13 13 12 11 10 8 10 11 9 10 8 5 3 1 3 9 10 7 7 9 8 7 10 16 17 15 16
4 4 3 2 2 2 5 7 4 6 10 6 2 1 1 5 11 12 10 7 4 6 7 5 3 5 11 13 7 5 8 10 7 6 9 9 6 4 5 8 8 7 8 8 7 8 7 7 8 8 5 1 3 10 14 12 13 14 12 13 13 10 10 9 10 11 9 9 11 10 9 7 6 9 13 13 12 14 14 14 16 18 17 14 12
3 3 3 4 4 3 5 8 8 11 11 6 6 7 1 2 11 12 8 6 5 6 8 7 4 5 9 14 12 6 5 8 6 7 9 8 4 5 6 7 9 8 5 4 6 11 12 8 5 3 0 3 10 13 13 12 13 14 13 12 11 9 10 10 11 13 11 9 11 12 11 10 12 13 15 17 17 19 20 16 12 10 12 15 14
7 7 8 6 8 9 9 9 11 14 13 7 9 11 4 3 9 9 7 9 8 8 9 6 4 4 3 10 16 10 3 3 5 8 10 7 4 6 7 7 7 4 3 9 16 14 7 2 2 4 5 10 14 13 12 12 12 12 12 10 10 10 11 11 10 12 13 11 10 12 13 12 16 18 17 16 17 20 22 19 13 7 5 8 13
5 7 9 6 7 7 6 8 8 10 12 8 6 9 6 6 13 11 6 7 6 6 8 9 8 1 -3 9 20 12 2 0 4 8 9 7 6 7 8 7 5 9 16 21 17 6 -2 2 7 9 11 14 14 11 11 10 9 10 10 9 10 11 10 10 10 10 12 11 8 10 14 14 18 20 15 14 17 17 17 20 20 18 13 8 8
-1 3 5 7 9 5 6 11 9 7 7 3 6 12 7 5 14 15 8 9 8 6 8 10 12 6 -2 5 17 16 6 -2 -1 6 9 9 8 6 8 9 10 14 14 8 4 2 3 8 10 10 12 13 11 10 10 9 8 8 7 8 10 11 10 9 9 9 10 10 8 8 12 15 19 20 14 12 16 16 14 14 15 18 21 17 11
2 1 2 11 16 11 9 10 9 9 9 10 11 8 -3 -5 7 10 7 9 7 4 8 10 9 9 4 3 12 19 13 -0 -5 2 9 10 7 5 9 10 9 6 -3 -5 3 7 6 8 11 10 10 11 11 11 10 9 9 9 8 9 9 10 10 9 9 10 10 9 9 9 14 18 18 17 15 14 14 13 14 13 11 12 16 19 17
7 4 5 11 14 11 6 7 13 12 10 19 19 7 -1 -1 5 4 -0 6 12 5 3 10 11 7 3 3 11 18 13 4 -1 0 6 11 8 4 7 9 8 4 -3 -4 3 5 6 11 12 9 10 12 13 12 10 9 11 12 10 10 10 10 10 9 10 11 10 10 10 13 18 19 16 15 17 19 17 13 12 15 15 13 13 15 16
10 11 10 11 11 10 5 8 13 -1 -6 18 27 16 11 9 17 19 -3 -8 15 18 6 10 13 6 4 7 10 11 10 7 4 1 5 12 10 2 -2 0 5 6 1 -1 0 3 7 12 10 8 10 12 11 10 10 9 11 14 14 13 12 10 9 9 9 9 10 11 12 16 19 18 15 15 15 17 20 18 14 15 17 15 15 14 12
10 13 14 13 12 11 11 20 24 2 -4 22 33 22 12 4 13 23 2 -9 9 20 19 18 10 1 2 7 8 7 8 8 5 2 4 12 16 6 -7 -5 5 7 4 3 4 5 8 10 10 10 11 11 11 10 10 10 12 15 16 14 12 11 10 9 9 10 11 13 16 19 18 15 14 14 13 14 18 17 13 13 14 13 15 15 10
7 12 14 11 8 8 11 21 27 15 7 16 20 19 17 11 7 8 10 10 -0 -7 4 10 3 -1 -2 -0 4 5 6 7 4 1 5 14 18 10 1 5 9 5 3 5 7 9 10 10 10 10 10 11 11 11 10 12 15 16 15 15 13 11 10 10 11 12 14 16 19 17 14 14 14 12 12 13 13 12 12 12 13 12 14 18 18
4 5 8 9 7 3 2 4 10 14 13 11 11 11 8 10 14 14 23 30 13 -2 -2 -9 -10 3 4 -1 2 4 5 9 5 -1 4 10 10 6 8 10 2 -2 3 9 11 12 9 8 10 10 10 11 11 11 12 14 17 16 15 15 13 11 11 11 12 15 18 19 17 14 14 15 13 10 11 12 10 10 11 11 13 15 15 19 26
4 1 3 9 8 2 4 4 1 9 19 14 7 6 -2 -7 1 7 14 25 23 12 0 -10 -3 17 23 12 1 -3 5 14 8 -1 1 6 6 8 10 3 -5 -0 9 11 11 9 7 8 11 9 10 11 10 12 15 16 17 17 16 14 11 10 11 12 15 20 21 18 14 12 12 12 10 10 11 10 11 12 12 12 13 16 18 21 28
4 1 1 7 8 4 5 4 3 16 28 19 7 10 11 4 4 8 5 12 22 12 -1 4 14 23 30 17 -6 -7 9 16 8 -0 1 6 7 8 4 -4 -3 7 10 8 9 9 8 10 11 11 11 11 10 13 16 15 15 17 16 13 11 10 12 15 19 21 18 14 12 11 10 11 12 12 11 11 13 11 11 13 13 17 25 29 31
3 2 0 2 5 6 6 6 9 16 21 23 23 23 18 14 23 28 9 3 25 29 16 18 18 17 23 9 -10 -0 15 14 8 3 2 5 5 3 -0 -1 5 10 8 9 11 9 10 11 11 13 13 12 14 15 13 12 13 16 14 11 10 11 14 19 20 18 14 10 9 10 12 13 13 11 11 12 11 8 9 11 14 23 34 34 29
2 3 0 -1 2 7 10 9 8 7 9 17 22 21 21 19 23 26 15 18 46 48 24 17 17 16 14 0 -6 11 18 12 9 4 3 9 5 -3 -2 3 10 10 7 9 10 8 11 12 11 13 15 16 18 13 9 10 13 14 13 12 12 14 17 21 19 15 11 9 10 12 13 12 11 11 13 10 5 5 8 10 16 27 34 29 23
-1 1 1 3 8 10 9 7 7 9 8 6 9 20 26 17 10 18 27 38 51 37 12 11 24 29 16 -4 0 19 18 8 7 5 9 15 4 -6 1 10 10 7 6 9 9 9 11 10 10 14 15 18 17 9 6 11 13 14 15 13 13 16 20 20 16 12 10 9 11 12 11 10 11 13 11 5 2 4 5 10 19 25 27 28 28
-2 5 8 12 15 11 7 6 6 9 9 10 23 30 17 11 29 44 34 15 3 -1 1 15 35 37 10 -13 -0 21 15 4 5 6 8 7 -0 0 10 12 7 5 8 10 10 10 9 9 13 16 16 17 14 6 7 11 12 14 15 13 14 18 21 19 14 10 9 8 10 11 9 10 13 12 7 3 3 4 3 10 20 20 21 32 38
4 17 18 17 16 10 6 7 9 15 16 16 25 23 11 23 39 26 2 -9 -10 2 21 32 34 23 -2 -10 8 19 13 8 7 4 1 2 7 11 12 8 6 7 10 10 10 10 8 11 16 17 17 18 11 6 7 10 13 15 14 13 16 19 20 17 12 9 8 8 10 10 9 12 13 9 4 3 4 4 4 10 17 18 24 36 43
14 20 14 11 11 8 11 15 16 19 21 24 33 29 16 15 9 -9 -10 0 3 15 31 30 20 9 2 7 15 16 20 18 2 -5 2 9 13 11 7 7 7 8 10 9 9 10 10 13 17 17 19 18 10 7 9 11 14 15 12 13 17 19 18 15 10 8 7 9 11 10 11 14 11 6 2 3 5 5 6 11 14 21 31 36 32
16 11 4 8 15 16 18 21 19 19 20 21 24 18 -1 -6 4 13 15 8 4 18 25 13 2 -0 2 6 4 8 20 10 -13 -7 10 13 11 9 7 8 9 9 11 10 9 11 10 11 15 17 20 17 9 7 9 11 14 12 11 15 18 17 16 13 9 8 7 10 13 11 12 13 9 5 2 3 5 5 6 11 13 22 36 32 17
13 8 4 9 16 17 17 17 15 16 15 6 2 5 5 8 15 14 4 -3 4 16 16 5 -2 -1 10 18 7 -3 -1 -12 -19 2 17 11 9 10 8 11 12 11 10 8 7 8 8 10 16 19 19 15 9 8 10 12 13 10 11 17 17 14 14 11 9 9 7 11 13 11 13 13 8 5 3 2 5 6 6 9 13 25 37 29 13
17 13 9 10 14 15 14 12 10 12 15 11 11 16 13 10 10 4 3 14 18 11 10 16 15 14 25 27 8 -5 -5 -16 -21 -0 14 11 11 11 10 12 11 7 7 6 5 6 8 14 18 18 17 12 8 8 10 11 11 10 13 17 16 14 12 9 10 10 8 10 12 11 14 13 7 5 3 2 5 6 5 8 14 31 44 30 13
25 15 9 10 16 17 12 9 11 14 14 10 13 16 10 7 6 1 9 25 17 0 5 20 25 24 20 6 -5 -0 1 -17 -24 -3 15 14 8 6 7 7 5 3 5 6 5 8 12 17 18 16 15 12 9 9 10 9 10 11 14 16 15 14 12 9 11 10 7 10 12 12 14 11 7 5 3 3 6 5 5 9 15 33 45 24 7
15 9 11 13 16 15 11 10 11 12 11 11 14 14 9 5 4 7 20 23 5 -1 17 30 24 15 8 5 9 13 2 -16 -19 -2 10 7 1 1 5 7 7 7 6 6 7 10 15 19 18 14 13 12 9 9 9 9 11 13 14 15 15 15 12 10 10 9 8 10 12 12 12 9 7 6 2 3 6 4 6 10 13 29 41 22 11
4 11 14 14 16 13 10 11 8 5 11 17 13 7 5 7 13 22 32 31 25 30 36 23 1 -10 -6 6 11 5 -3 -9 -10 -2 7 6 1 3 9 12 10 7 6 8 10 13 18 20 15 11 12 12 10 9 8 10 12 13 13 14 16 16 12 9 10 10 9 10 11 12 12 9 7 6 3 4 5 4 8 11 12 27 40 28 21
15 21 17 13 13 11 9 10 7 6 12 13 2 -2 6 12 13 15 26 47 61 43 3 -22 -21 -12 -2 7 8 4 6 7 6 12 15 6 0 7 15 13 7 6 10 13 14 17 20 18 11 10 13 13 10 9 9 11 14 14 13 13 16 18 13 8 9 10 9 10 11 10 10 9 8 7 5 5 5 4 7 9 12 26 40 32 20
19 18 14 10 8 8 9 10 7 6 9 7 -0 -0 7 12 13 13 18 32 34 2 -31 -28 -6 3 7 15 17 15 15 15 17 16 6 -3 4 16 16 8 7 12 15 15 16 19 19 15 11 12 13 12 11 10 10 13 15 15 12 10 14 19 16 9 8 9 8 9 11 10 10 9 9 8 7 5 5 4 5 8 11 22 38 38 22
12 9 9 9 9 9 7 6 6 6 6 5 4 5 7 9 12 13 9 6 -1 -13 -13 0 7 8 15 21 18 14 13 12 10 4 -2 6 18 17 8 6 12 16 16 16 17 18 16 13 11 12 13 12 11 10 11 14 16 14 10 8 13 20 18 9 5 7 7 8 10 11 11 9 8 8 7 5 5 4 4 7 11 18 34 42 31
7 8 9 8 7 8 6 4 6 7 6 6 6 7 6 4 5 6 6 5 3 1 4 8 10 15 20 17 10 7 5 4 6 8 13 21 18 5 2 10 16 16 15 15 16 15 14 13 12 12 13 12 11 12 13 14 14 12 9 8 11 18 21 14 5 3 4 6 8 9 11 10 8 8 6 5 6 4 3 7 10 16 30 41 36
7 9 9 8 6 6 6 6 5 4 5 6 7 8 9 11 11 10 7 7 8 7 8 9 10 12 13 10 7 6 8 16 22 20 17 14 5 -0 7 17 18 15 14 14 15 15 14 14 13 13 13 11 11 13 13 13 13 11 9 8 9 14 19 18 12 5 1 2 4 6 9 10 8 7 6 5 6 4 4 8 9 11 23 37 38
12 5 2 5 6 5 5 5 5 7 8 8 9 10 11 13 13 11 8 8 9 11 14 17 17 17 17 15 13 15 21 25 17 7 5 6 6 9 17 20 18 15 13 14 16 16 15 15 15 14 13 11 12 13 12 12 12 10 9 10 10 11 14 17 17 14 8 4 2 3 6 8 7 7 5 5 7 5 4 8 10 9 18 32 37
25 27 18 3 -5 -0 7 8 10 12 9 7 8 10 9 7 5 5 6 7 10 18 22 20 18 18 16 14 15 18 19 11 2 1 7 11 12 17 21 20 18 14 13 15 17 16 16 16 14 13 13 12 13 13 12 12 12 11 12 12 12 12 12 12 16 18 17 14 9 4 5 6 6 7 5 4 7 7 4 7 10 8 14 26 33
27 36 23 -5 -13 2 13 10 8 7 5 5 8 8 6 6 5 6 11 14 16 19 13 3 3 10 13 14 15 13 5 1 2 8 12 14 18 23 23 20 17 15 15 18 18 17 17 15 13 13 14 13 13 13 13 13 13 13 14 13 12 13 12 10 13 16 18 20 17 11 8 7 5 6 6 4 7 8 6 7 9 8 11 22 30
12 4 -8 -13 -0 15 15 8 6 4 3 7 11 10 9 10 8 10 15 15 10 6 2 1 7 14 14 11 8 4 3 8 14 16 17 20 22 22 19 17 17 17 18 19 18 17 16 15 13 14 14 14 14 13 12 13 13 13 15 14 12 12 11 10 12 14 16 18 18 14 12 10 7 7 7 6 7 8 7 7 8 8 10 17 25
10 1 -1 8 16 15 7 4 5 5 7 10 10 8 9 9 7 10 15 12 7 6 9 9 9 8 7 5 6 9 15 20 21 20 20 19 18 17 16 17 17 16 17 17 17 17 15 13 13 14 14 13 13 11 10 11 12 14 15 13 12 11 12 12 12 13 15 17 17 15 12 10 9 9 8 9 8 7 7 7 7 9 11 12 17
15 13 14 14 10 5 4 7 9 9 10 10 9 10 10 9 8 11 12 10 7 6 7 7 7 7 7 9 15 20 19 17 18 20 18 15 15 16 15 13 12 14 16 18 18 16 14 13 13 14 13 11 10 10 10 11 12 14 14 13 11 11 11 12 12 12 13 14 15 16 13 12 12 11 9 10 8 6 7 8 6 9 12 10 11
10 8 9 10 8 8 10 12 11 10 11 12 13 12 9 7 9 11 10 9 8 8 10 12 11 11 15 20 24 20 12 9 14 17 15 14 16 15 13 11 12 16 19 19 17 14 13 14 14 12 11 10 10 10 10 10 12 14 13 12 12 10 10 12 12 11 11 11 12 14 14 13 14 13 10 10 8 6 7 8 6 8 11 9 6
5 8 12 13 11 10 9 8 9 12 15 14 11 8 8 10 12 12 11 13 14 16 19 21 21 22 26 24 16 8 7 11 14 15 16 20 21 18 16 17 18 20 21 18 14 13 12 12 12 10 10 10 9 9 10 10 11 13 13 12 12 11 11 11 11 11 11 10 10 11 12 12 13 12 10 9 8 7 7 7 6 7 9 9 7
19 22 18 11 6 8 13 15 16 18 16 8 4 7 12 13 12 12 16 20 20 18 19 23 25 23 17 9 4 9 16 19 19 20 22 22 19 16 18 20 20 21 20 15 13 13 11 10 11 10 9 10 11 10 10 10 11 12 13 13 12 11 11 11 11 11 12 12 11 10 10 10 11 11 10 9 9 8 7 8 7 7 8 8 7
16 10 4 4 9 16 18 17 16 14 7 1 3 9 11 10 11 16 19 21 18 13 12 14 11 3 -2 1 9 17 19 17 18 18 15 12 13 16 17 16 15 15 15 14 13 13 12 11 12 11 10 11 11 10 10 11 12 11 12 13 13 12 11 11 11 11 11 11 11 11 10 10 9 10 10 9 9 8 7 8 8 7 8 9 8
13 11 13 16 17 15 11 10 12 8 -1 -4 2 8 11 13 17 19 18 18 19 18 16 15 10 5 7 12 14 14 12 12 12 11 7 8 13 15 13 13 12 11 11 12 13 13 13 12 12 12 12 12 11 10 11 12 12 11 12 12 13 13 11 10 10 10 9 10 10 9 10 10 9 9 9 9 9 9 8 8 9 8 8 9 8
17 21 22 13 6 9 14 13 9 2 -3 1 10 15 17 18 20 18 17 18 19 18 15 14 14 13 14 13 10 9 10 10 9 9 9 12 14 13 12 12 12 10 11 12 12 12 12 11 11 12 12 11 10 11 11 11 11 11 11 11 12 13 11 10 9 8 7 7 8 7 7 8 8 8 9 8 8 9 9 7 8 9 8 9 9
13 16 12 2 7 22 20 4 -5 -1 8 15 19 18 17 18 19 19 17 15 14 13 13 13 13 12 11 10 10 11 12 12 12 13 14 14 15 15 13 12 11 11 12 12 11 11 11 11 11 12 11 10 10 11 11 11 11 10 10 10 10 11 10 10 10 9 8 8 8 7 7 7 7 7 8 8 8 9 9 8 8 8 8 8 9
13 11 4 1 11 13 -5 -16 -3 16 23 21 19 18 19 20 18 15 13 11 10 11 11 11 11 11 11 12 13 13 14 15 16 16 16 16 17 16 15 14 14 13 13 13 13 13 12 11 11 11 10 10 11 11 11 11 10 9 10 10 9 9 10 9 9 10 10 9 8 8 8 8 8 7 7 8 8 8 8 8 9 8 9 9 9
1 -3 -2 3 6 -3 -11 1 23 30 23 18 19 19 18 15 12 11 12 12 12 12 11 11 12 12 12 13 14 15 16 17 17 16 16 16 16 15 16 16 14 13 13 14 14 13 12 12 12 12 11 11 11 12 11 11 10 10 10 10 9 10 10 10 9 10 10 10 10 9 8 8 8 7 8 8 9 8 9 9 9 9 9 9 9
-3 5 13 18 17 14 17 26 28 21 16 19 19 15 13 13 12 13 13 12 11 11 10 10 11 11 12 13 14 15 16 17 17 17 17 16 16 17 16 14 13 13 14 13 12 13 14 14 12 12 12 12 12 12 11 11 10 10 10 10 10 10 10 10 10 10 10 10 11 10 9 9 8 7 7 8 9 9 9 9 9 10 10 9 10
9 12 14 18 21 23 23 21 18 15 15 15 13 12 13 13 12 11 12 12 12 13 13 14 16 16 17 17 16 16 16 16 16 17 17 17 17 18 17 16 16 15 14 14 14 14 15 14 14 14 13 12 12 12 12 11 11 11 11 10 11 10 11 11 11 11 11 11 11 11 11 11 9 7 7 8 9 9 10 10 10 10 10 10 9
-7 -2 10 19 22 20 17 15 14 13 12 11 12 13 13 11 13 16 17 17 18 18 19 21 22 21 21 21 19 18 17 16 14 15 16 16 16 16 17 19 20 18 16 16 16 16 16 16 15 13 12 12 12 12 12 11 11 11 12 12 13 14 15 15 15 16 16 15 14 14 13 13 12 11 9 8 9 10 10 11 11 11 10 10 10
4 15 25 25 19 15 15 14 11 10 12 13 12 12 14 18 22 22 18 16 16 18 19 20 20 20 20 20 19 18 17 16 15 15 16 15 14 14 16 18 20 19 18 18 17 17 17 15 12 11 12 12 12 12 11 12 13 14 15 17 18 19 20 20 21 21 21 21 21 21 20 18 17 16 14 11 10 11 12 12 12 12 11 11 10
28 28 23 16 13 13 12 10 10 12 14 13 13 17 22 23 18 13 10 10 11 12 14 15 16 17 18 18 18 18 17 15 15 16 16 14 12 11 13 15 16 15 15 14 14 13 12 11 11 12 12 11 11 12 12 14 16 18 19 20 20 19 19 20 20 20 21 21 22 22 22 21 19 18 17 15 12 11 13 14 13 13 13 13 12
Height
5886 5885 5884 5883 5882 5881 5880 5879 5878 5877 5876 5874 5873 5872 5872 5871 5871 5870 5870 5870 5869 5869 5868 5867 5866 5864 5863 5862 5860 5859 5858 5858 5857 5856 5855 5854 5853 5851 5850 5848 5847 5845 5844 5842 5841 5839 5837 5834 5832 5830 5828 5826 5824 5821 5819 5817 5815 5813 5810 5808 5805 5803 5801 5799 5799 5798 5796 5793 5792 5790 5787 5786 5784 5781 5780 5779 5777 5776 5776 5775 5775 5775 5775 5775 5775
5884 5883 5882 5881 5880 5878 5877 5876 5875 5874 5873 5871 5870 5869 5869 5868 5868 5867 5867 5866 5865 5864 5864 5863 5862 5860 5859 5858 5857 5856 5855 5854 5853 5852 5851 5850 5849 5847 5846 5844 5842 5841 5840 5838 5837 5835 5833 5830 5827 5825 5823 5821 5819 5816 5814 5811 5809 5807 5804 5802 5800 5797 5795 5793 5791 5791 5790 5786 5784 5783 5781 5779 5777 5774 5772 5772 5770 5769 5768 5767 5767 5767 5767 5767 5768
5882 5881 5879 5878 5877 5875 5873 5873 5872 5871 5870 5869 5867 5866 5866 5865 5864 5864 5862 5861 5860 5860 5859 5858 5857 5857 5856 5855 5854 5853 5852 5850 5849 5848 5847 5846 5844 5843 5841 5839 5838 5836 5835 5834 5832 5831 5828 5826 5823 5821 5819 5816 5813 5810 5808 5806 5803 5801 5798 5796 5794 5791 5789 5787 5784 5784 5783 5780 5777 5776 5774 5772 5770 5767 5765 5765 5764 5762 5761 5760 5760 5760 5759 5759 5760
5879 5878 5876 5875 5873 5871 5870 5869 5868 5867 5866 5865 5864 5863 5862 5861 5861 5859 5858 5857 5856 5856 5856 5855 5853 5852 5852 5851 5850 5849 5847 5846 5845 5844 5842 5841 5840 5838 5836 5835 5833 5832 5830 5829 5828 5826 5824 5822 5819 5817 5814 5811 5807 5804 5802 5800 5797 5795 5792 5789 5787 5785 5782 5780 5778 5776 5776 5774 5771 5769 5768 5765 5763 5761 5758 5757 5757 5755 5754 5754 5754 5753 5752 5752 5752
5876 5875 5873 5871 5869 5868 5865 5864 5863 5862 5862 5860 5860 5859 5858 5857 5856 5855 5853 5853 5853 5853 5852 5851 5850 5848 5847 5846 5845 5844 5842 5841 5840 5839 5838 5836 5835 5833 5832 5830 5828 5827 5825 5824 5823 5822 5820 5817 5814 5812 5809 5805 5802 5799 5796 5793 5791 5789 5787 5784 5781 5779 5776 5773 5771 5769 5768 5767 5765 5763 5761 5759 5757 5754 5751 5750 5751 5750 5748 5747 5747 5747 5746 5745 5745
5872 5871 5870 5868 5866 5863 5861 5859 5857 5857 5856 5855 5854 5854 5852 5851 5852 5851 5849 5848 5848 5848 5847 5846 5845 5844 5843 5841 5840 5839 5837 5836 5835 5834 5833 5832 5831 5829 5827 5826 5824 5822 5821 5820 5819 5818 5815 5812 5809 5806 5803 5800 5797 5794 5790 5787 5785 5783 5781 5778 5775 5773 5770 5767 5764 5762 5760 5759 5758 5756 5754 5752 5750 5748 5745 5743 5744 5743 5742 5741 5741 5739 5739 5739 5739
5869 5868 5866 5864 5862 5859 5857 5854 5851 5851 5852 5851 5850 5850 5849 5848 5848 5847 5844 5843 5843 5842 5841 5841 5840 5839 5838 5836 5835 5834 5833 5832 5831 5830 5829 5828 5826 5825 5823 5821 5820 5818 5817 5816 5815 5813 5810 5807 5803 5800 5798 5795 5792 5788 5785 5782 5780 5777 5775 5772 5769 5767 5764 5761 5758 5756 5754 5751 5750 5748 5747 5745 5743 5741 5738 5737 5736 5736 5735 5735 5735 5733 5732 5732 5732
5866 5864 5862 5860 5858 5856 5853 5848 5844 5845 5847 5847 5847 5846 5846 5845 5844 5842 5839 5838 5837 5836 5836 5835 5835 5834 5833 5832 5831 5829 5828 5828 5827 5826 5825 5823 5822 5821 5819 5817 5815 5814 5813 5811 5809 5807 5804 5801 5798 5795 5792 5789 5786 5783 5779 5776 5774 5771 5768 5765 5763 5760 5757 5755 5752 5749 5747 5744 5742 5739 5738 5738 5736 5734 5732 5730 5729 5728 5727 5727 5728 5727 5726 5726 5726
5863 5861 5859 5857 5854 5852 5847 5841 5839 5842 5843 5843 5843 5841 5840 5840 5838 5835 5833 5832 5831 5831 5830 5830 5829 5829 5828 5827 5826 5825 5824 5824 5823 5822 5820 5819 5818 5816 5815 5813 5811 5810 5808 5806 5804 5801 5799 5795 5792 5789 5787 5784 5781 5777 5774 5771 5768 5766 5762 5759 5756 5754 5751 5748 5745 5743 5740 5737 5734 5732 5730 5730 5728 5726 5725 5723 5722 5721 5719 5718 5719 5719 5719 5720 5720
5859 5857 5855 5853 5850 5847 5841 5838 5840 5841 5837 5836 5837 5834 5832 5833 5831 5829 5828 5827 5827 5826 5825 5824 5824 5824 5823 5823 5822 5821 5820 5819 5819 5817 5816 5815 5813 5812 5810 5808 5806 5805 5803 5801 5798 5796 5793 5790 5786 5784 5781 5778 5775 5771 5768 5765 5762 5760 5757 5753 5750 5747 5744 5742 5739 5736 5733 5730 5727 5724 5723 5722 5720 5719 5718 5716 5715 5714 5712 5711 5711 5711 5711 5712 5713
5854 5853 5851 5849 5846 5843 5839 5837 5839 5837 5831 5829 5830 5828 5828 5828 5826 5823 5822 5821 5821 5820 5820 5819 5819 5819 5819 5818 5817 5817 5816 5815 5814 5813 5812 5810 5809 5807 5806 5804 5802 5800 5798 5796 5793 5790 5787 5784 5781 5778 5775 5772 5769 5765 5762 5759 5757 5754 5751 5747 5744 5741 5738 5735 5732 5729 5726 5724 5721 5718 5716 5715 5714 5713 5712 5710 5709 5707 5705 5703 5703 5703 5702 5702 5704
5849 5848 5847 5845 5842 5839 5836 5833 5832 5830 5826 5825 5824 5824 5824 5823 5821 5819 5816 5814 5814 5814 5814 5814 5814 5814 5814 5813 5813 5812 5811 5810 5809 5809 5807 5806 5804 5803 5801 5799 5798 5796 5794 5791 5788 5785 5782 5779 5775 5772 5769 5766 5763 5760 5757 5754 5751 5748 5744 5740 5737 5734 5732 5729 5726 5723 5720 5718 5715 5712 5710 5710 5709 5707 5706 5704 5703 5701 5698 5696 5694 5693 5693 5692 5693
5845 5843 5842 5840 5838 5835 5832 5829 5826 5822 5819 5820 5821 5820 5820 5817 5816 5815 5812 5810 5808 5807 5808 5809 5808 5808 5808 5808 5808 5808 5806 5805 5804 5804 5803 5801 5800 5798 5797 5795 5793 5791 5789 5786 5784 5781 5777 5773 5770 5766 5763 5760 5757 5755 5752 5750 5746 5742 5738 5734 5730 5727 5725 5722 5720 5717 5715 5712 5709 5707 5705 5703 5702 5701 5700 5698 5696 5695 5692 5689 5687 5685 5683 5683 5683
5841 5839 5837 5835 5833 5830 5828 5825 5821 5816 5815 5818 5818 5817 5817 5814 5811 5809 5806 5803 5801 5801 5802 5804 5803 5803 5802 5802 5803 5802 5801 5799 5799 5798 5798 5797 5795 5794 5792 5791 5789 5786 5783 5780 5778 5775 5772 5768 5765 5761 5757 5754 5752 5750 5748 5745 5741 5737 5733 5729 5725 5721 5718 5716 5713 5711 5709 5707 5705 5703 5700 5698 5696 5695 5694 5693 5690 5688 5685 5682 5679 5676 5674 5674 5674
5836 5835 5833 5831 5828 5826 5823 5820 5816 5813 5814 5815 5814 5812 5811 5808 5806 5804 5799 5796 5796 5797 5798 5799 5798 5798 5797 5797 5798 5797 5795 5794 5793 5793 5793 5792 5790 5789 5788 5786 5783 5781 5778 5774 5772 5769 5766 5762 5759 5755 5752 5749 5746 5744 5742 5740 5736 5733 5728 5723 5719 5716 5712 5710 5708 5706 5704 5702 5700 5699 5696 5694 5692 5690 5688 5687 5684 5681 5678 5675 5670 5666 5664 5664 5664
5832 5830 5828 5827 5824 5822 5819 5816 5813 5809 5808 5809 5809 5807 5804 5801 5798 5795 5792 5791 5792 5793 5794 5794 5794 5793 5793 5793 5793 5792 5790 5789 5788 5789 5788 5786 5785 5784 5783 5780 5778 5775 5773 5770 5767 5764 5760 5757 5753 5750 5747 5744 5741 5739 5737 5734 5731 5727 5723 5718 5714 5710 5707 5705 5703 5701 5699 5697 5696 5694 5692 5690 5688 5685 5682 5681 5679 5675 5672 5669 5663 5658 5655 5654 5654
5827 5825 5823 5822 5819 5817 5814 5812 5810 5806 5802 5802 5803 5801 5797 5794 5790 5787 5786 5788 5788 5788 5789 5790 5788 5787 5788 5789 5788 5787 5785 5784 5784 5784 5783 5782 5781 5780 5778 5775 5772 5769 5767 5764 5761 5758 5754 5751 5748 5744 5741 5739 5736 5734 5731 5729 5726 5722 5718 5713 5709 5706 5702 5700 5698 5696 5695 5693 5691 5689 5688 5686 5683 5681 5678 5675 5673 5669 5665 5662 5657 5652 5647 5645 5645
5823 5821 5819 5817 5814 5812 5809 5807 5806 5803 5799 5797 5795 5793 5790 5787 5784 5783 5785 5785 5785 5785 5785 5785 5783 5783 5784 5784 5783 5781 5780 5779 5779 5779 5779 5778 5777 5775 5772 5769 5766 5764 5761 5759 5756 5752 5749 5745 5742 5739 5736 5733 5731 5729 5726 5723 5720 5716 5713 5709 5705 5701 5699 5696 5694 5693 5691 5689 5687 5685 5684 5682 5679 5677 5674 5670 5667 5663 5658 5654 5649 5644 5640 5639 5637
5818 5815 5813 5811 5808 5806 5804 5802 5800 5798 5796 5793 5789 5785 5783 5783 5782 5782 5783 5782 5781 5780 5780 5779 5780 5780 5780 5779 5777 5776 5775 5774 5775 5775 5774 5773 5771 5769 5766 5764 5761 5759 5756 5753 5750 5746 5743 5740 5737 5734 5731 5728 5726 5724 5721 5718 5715 5711 5708 5704 5701 5697 5695 5693 5691 5689 5688 5686 5684 5681 5679 5677 5674 5672 5670 5666 5662 5658 5653 5648 5643 5638 5634 5633 5631
5813 5810 5807 5805 5802 5799 5797 5796 5795 5794 5792 5789 5783 5778 5778 5781 5781 5780 5779 5778 5776 5774 5774 5775 5776 5775 5775 5775 5773 5771 5770 5770 5770 5770 5769 5767 5765 5763 5761 5758 5756 5753 5750 5747 5743 5740 5737 5734 5732 5728 5725 5723 5721 5718 5716 5713 5710 5706 5703 5700 5697 5694 5691 5689 5688 5686 5684 5683 5681 5678 5675 5673 5670 5668 5666 5663 5659 5655 5651 5646 5641 5634 5629 5628 5627
5809 5806 5803 5800 5796 5793 5791 5790 5791 5790 5788 5787 5784 5779 5779 5779 5777 5776 5775 5773 5771 5770 5770 5771 5771 5770 5771 5771 5769 5767 5766 5766 5765 5764 5762 5760 5759 5757 5755 5753 5750 5747 5744 5740 5737 5734 5731 5728 5725 5723 5720 5718 5716 5713 5711 5708 5704 5701 5698 5695 5693 5690 5687 5686 5684 5682 5681 5679 5677 5675 5672 5670 5668 5665 5663 5660 5656 5653 5649 5644 5638 5632 5626 5623 5622
5803 5801 5798 5795 5791 5788 5785 5785 5786 5787 5786 5785 5784 5781 5779 5776 5773 5771 5770 5768 5768 5767 5766 5766 5765 5764 5765 5765 5764 5764 5763 5761 5759 5757 5756 5754 5753 5751 5749 5747 5744 5740 5737 5734 5731 5728 5725 5722 5720 5717 5715 5713 5711 5708 5706 5703 5699 5696 5693 5691 5688 5686 5683 5682 5681 5679 5677 5675 5673 5671 5669 5667 5665 5662 5660 5657 5654 5650 5646 5641 5635 5630 5625 5621 5618
5797 5795 5793 5790 5786 5783 5780 5780 5782 5783 5782 5781 5780 5777 5775 5772 5769 5767 5766 5765 5763 5762 5761 5761 5760 5759 5759 5759 5759 5759 5758 5756 5753 5751 5750 5749 5747 5745 5743 5740 5737 5734 5730 5728 5725 5722 5720 5717 5715 5713 5710 5708 5706 5704 5701 5698 5695 5692 5689 5686 5684 5682 5680 5678 5677 5675 5674 5671 5670 5668 5666 5664 5662 5660 5657 5654 5651 5648 5644 5638 5632 5627 5623 5620 5617
5791 5789 5787 5785 5782 5779 5777 5776 5777 5777 5776 5775 5774 5772 5770 5768 5765 5764 5764 5763 5760 5758 5757 5757 5755 5755 5756 5756 5755 5753 5752 5750 5748 5746 5745 5743 5741 5739 5736 5733 5730 5727 5725 5722 5720 5717 5715 5713 5710 5708 5705 5703 5701 5698 5696 5693 5690 5687 5685 5683 5680 5678 5676 5675 5673 5672 5670 5668 5666 5664 5662 5660 5659 5657 5654 5651 5649 5645 5642 5636 5630 5624 5619 5617 5615
5785 5784 5782 5780 5777 5775 5773 5771 5771 5772 5771 5770 5769 5767 5765 5763 5762 5760 5759 5759 5757 5755 5754 5753 5753 5754 5755 5754 5751 5749 5747 5745 5743 5741 5739 5737 5734 5732 5729 5727 5724 5722 5719 5717 5715 5712 5710 5708 5705 5703 5701 5698 5696 5693 5691 5689 5686 5683 5681 5679 5677 5675 5673 5671 5670 5668 5666 5665 5663 5661 5659 5657 5655 5653 5651 5648 5645 5642 5639 5634 5628 5621 5617 5615 5613
5779 5778 5776 5774 5772 5770 5769 5768 5766 5766 5765 5764 5763 5762 5760 5758 5756 5754 5752 5751 5750 5750 5749 5750 5751 5751 5751 5749 5747 5745 5742 5740 5738 5735 5733 5730 5728 5726 5724 5721 5719 5716 5714 5712 5710 5708 5705 5703 5700 5698 5696 5694 5691 5689 5687 5684 5682 5679 5677 5675 5673 5671 5669 5668 5666 5665 5663 5661 5660 5658 5656 5654 5652 5650 5647 5645 5642 5639 5635 5631 5626 5620 5615 5613 5611
5773 5772 5771 5769 5767 5765 5764 5764 5763 5761 5760 5758 5757 5756 5754 5753 5750 5748 5748 5747 5747 5746 5746 5746 5745 5745 5744 5742 5740 5738 5736 5734 5732 5729 5727 5725 5723 5721 5718 5715 5712 5710 5708 5707 5705 5702 5700 5697 5695 5692 5690 5689 5686 5684 5682 5680 5678 5675 5673 5671 5669 5667 5665 5664 5663 5661 5660 5658 5656 5655 5653 5651 5649 5647 5644 5642 5639 5636 5631 5628 5623 5618 5613 5610 5608
5768 5767 5766 5764 5762 5761 5759 5759 5759 5757 5755 5754 5752 5750 5749 5748 5746 5745 5746 5746 5745 5744 5742 5740 5739 5738 5736 5735 5733 5731 5729 5727 5726 5723 5721 5719 5717 5714 5712 5709 5707 5705 5703 5702 5700 5697 5694 5692 5690 5687 5686 5684 5682 5680 5678 5676 5674 5672 5670 5668 5666 5663 5662 5661 5659 5658 5656 5655 5654 5652 5650 5648 5646 5644 5642 5639 5636 5633 5629 5625 5621 5616 5611 5607 5606
5763 5762 5761 5760 5759 5757 5756 5755 5754 5753 5752 5750 5749 5747 5745 5744 5743 5743 5743 5742 5740 5739 5737 5735 5733 5731 5729 5727 5726 5724 5723 5721 5719 5717 5715 5713 5711 5709 5706 5704 5702 5700 5698 5696 5694 5691 5689 5687 5684 5683 5681 5679 5677 5675 5673 5671 5669 5668 5666 5664 5662 5660 5658 5657 5656 5655 5653 5652 5651 5649 5647 5645 5643 5641 5639 5637 5633 5631 5628 5624 5620 5615 5610 5606 5604
5758 5758 5757 5756 5755 5754 5753 5752 5750 5749 5748 5746 5745 5743 5741 5740 5739 5737 5736 5735 5734 5732 5731 5729 5727 5725 5723 5721 5720 5719 5717 5715 5713 5711 5709 5707 5705 5703 5701 5699 5697 5695 5692 5690 5688 5686 5684 5682 5680 5678 5676 5674 5673 5670 5668 5667 5665 5664 5662 5661 5659 5657 5655 5654 5653 5651 5650 5649 5648 5646 5645 5643 5641 5639 5637 5634 5631 5628 5625 5621 5618 5614 5610 5605 5602
5754 5753 5753 5752 5751 5750 5749 5748 5746 5744 5743 5741 5739 5737 5736 5734 5733 5731 5730 5729 5728 5727 5725 5722 5720 5718 5717 5715 5714 5713 5711 5709 5707 5705 5703 5701 5700 5698 5695 5693 5691 5688 5686 5684 5682 5680 5678 5677 5675 5673 5672 5670 5668 5666 5664 5662 5661 5660 5658 5657 5655 5653 5652 5650 5649 5648 5647 5645 5644 5643 5642 5640 5638 5636 5634 5632 5629 5626 5623 5620 5616 5612 5608 5604 5601
5748 5747 5747 5746 5745 5744 5743 5741 5739 5737 5736 5734 5733 5731 5729 5728 5727 5726 5725 5723 5721 5719 5717 5715 5713 5712 5711 5709 5708 5706 5704 5702 5701 5699 5697 5695 5693 5691 5689 5687 5685 5683 5681 5679 5677 5675 5673 5672 5670 5668 5667 5665 5663 5661 5660 5658 5657 5656 5654 5653 5651 5650 5648 5647 5645 5644 5643 5642 5641 5640 5639 5637 5636 5634 5632 5630 5628 5625 5622 5619 5615 5612 5608 5604 5601
5741 5741 5741 5740 5739 5738 5736 5734 5733 5731 5730 5728 5727 5725 5723 5722 5721 5719 5718 5715 5713 5711 5709 5708 5707 5706 5705 5703 5701 5699 5698 5696 5695 5692 5690 5688 5687 5685 5683 5681 5678 5677 5675 5673 5671 5670 5668 5666 5665 5663 5662 5660 5659 5657 5656 5654 5653 5652 5650 5649 5647 5646 5644 5643 5642 5640 5639 5638 5638 5637 5636 5635 5633 5631 5629 5628 5626 5624 5621 5618 5615 5612 5609 5605 5601
5735 5734 5734 5734 5733 5731 5730 5728 5727 5726 5724 5723 5721 5719 5718 5716 5715 5713 5711 5708 5706 5705 5703 5703 5702 5701 5699 5697 5695 5693 5692 5690 5688 5686 5684 5682 5680 5678 5676 5674 5672 5671 5669 5668 5666 5664 5663 5661 5660 5658 5657 5655 5654 5653 5651 5651 5649 5648 5647 5645 5643 5642 5641 5639 5638 5637 5636 5635 5634 5634 5633 5632 5631 5629 5627 5625 5623 5622 5619 5617 5614 5611 5608 5605 5601
5729 5728 5728 5727 5726 5725 5724 5722 5721 5719 5718 5716 5715 5713 5712 5710 5709 5707 5705 5703 5701 5700 5698 5697 5696 5694 5693 5691 5689 5688 5686 5684 5681 5679 5677 5675 5673 5671 5669 5668 5666 5665 5664 5662 5661 5659 5658 5656 5655 5653 5652 5651 5650 5648 5648 5647 5646 5644 5643 5641 5640 5638 5637 5636 5635 5634 5633 5632 5631 5630 5630 5629 5628 5627 5625 5623 5621 5619 5617 5615 5612 5610 5608 5605 5602
5723 5723 5722 5721 5720 5719 5717 5716 5714 5713 5711 5710 5708 5707 5706 5704 5703 5701 5699 5698 5696 5695 5694 5692 5690 5688 5686 5684 5683 5681 5679 5677 5674 5671 5669 5668 5666 5664 5663 5662 5660 5659 5658 5657 5655 5654 5653 5651 5650 5649 5648 5647 5645 5645 5644 5643 5642 5641 5639 5638 5636 5635 5634 5633 5632 5631 5630 5629 5628 5627 5627 5626 5625 5624 5623 5621 5620 5618 5616 5613 5611 5609 5607 5605 5602
5716 5716 5715 5714 5713 5712 5711 5709 5708 5707 5705 5704 5702 5701 5700 5698 5697 5695 5694 5692 5691 5689 5687 5685 5683 5681 5679 5678 5676 5674 5672 5670 5667 5665 5663 5661 5660 5659 5657 5656 5655 5654 5652 5651 5650 5649 5648 5647 5646 5645 5644 5643 5642 5641 5640 5639 5638 5637 5636 5634 5633 5632 5631 5630 5629 5628 5627 5626 5625 5625 5624 5623 5622 5621 5620 5619 5617 5616 5614 5612 5610 5608 5606 5604 5602
5709 5709 5708 5706 5705 5704 5703 5703 5702 5701 5700 5698 5697 5695 5694 5692 5691 5689 5688 5686 5684 5682 5680 5678 5676 5674 5672 5671 5669 5667 5666 5664 5662 5659 5657 5655 5654 5653 5652 5651 5650 5648 5647 5646 5645 5645 5644 5643 5642 5641 5640 5639 5638 5637 5636 5635 5635 5634 5632 5631 5629 5628 5628 5627 5626 5625 5624 5624 5623 5622 5621 5620 5620 5619 5618 5616 5615 5614 5612 5611 5609 5607 5605 5603 5601
5704 5703 5701 5700 5699 5698 5697 5696 5696 5695 5693 5692 5691 5689 5688 5686 5685 5683 5681 5679 5677 5674 5673 5671 5669 5667 5666 5665 5663 5661 5660 5658 5656 5654 5652 5650 5649 5648 5646 5645 5644 5643 5643 5642 5641 5641 5640 5639 5638 5637 5636 5635 5634 5633 5632 5632 5631 5630 5629 5627 5626 5626 5625 5624 5623 5622 5622 5621 5620 5619 5619 5618 5617 5616 5615 5614 5613 5612 5610 5609 5608 5607 5605 5603 5601
5698 5697 5696 5695 5694 5693 5691 5690 5689 5688 5687 5686 5684 5683 5681 5680 5678 5676 5674 5672 5670 5668 5667 5665 5662 5660 5660 5659 5657 5656 5654 5652 5651 5649 5647 5645 5644 5642 5641 5640 5639 5639 5638 5638 5637 5637 5636 5635 5634 5633 5632 5631 5630 5630 5629 5628 5627 5626 5625 5624 5623 5623 5622 5621 5620 5620 5619 5618 5618 5617 5616 5615 5615 5614 5613 5612 5611 5610 5609 5608 5607 5606 5604 5602 5601
5691 5690 5689 5689 5687 5686 5684 5683 5682 5681 5681 5679 5678 5677 5675 5673 5672 5670 5668 5666 5664 5663 5661 5660 5657 5656 5655 5654 5652 5651 5649 5648 5646 5645 5643 5641 5640 5638 5637 5636 5635 5634 5634 5633 5633 5632 5632 5631 5630 5630 5629 5628 5627 5626 5625 5625 5624 5623 5622 5621 5620 5620 5619 5618 5618 5617 5616 5615 5615 5614 5613 5613 5612 5611 5611 5610 5609 5608 5607 5606 5605 5604 5603 5602 5601
5683 5683 5682 5681 5680 5679 5677 5676 5676 5675 5674 5673 5672 5671 5669 5667 5665 5663 5662 5660 5659 5657 5656 5655 5653 5652 5651 5649 5648 5646 5645 5643 5642 5640 5639 5637 5636 5634 5633 5632 5631 5630 5630 5629 5629 5628 5628 5627 5627 5626 5625 5624 5623 5623 5622 5621 5620 5619 5618 5618 5617 5617 5616 5615 5615 5614 5614 5613 5612 5611 5611 5610 5609 5609 5608 5607 5607 5606 5605 5604 5604 5603 5602 5601 5600
5676 5675 5675 5674 5674 5672 5671 5671 5671 5670 5669 5667 5666 5665 5663 5661 5660 5658 5656 5655 5653 5652 5651 5650 5649 5647 5646 5644 5643 5642 5640 5639 5637 5636 5634 5633 5631 5630 5629 5628 5627 5626 5626 5625 5624 5624 5623 5623 5622 5622 5621 5620 5620 5619 5618 5617 5616 5616 5615 5614 5614 5614 5613 5612 5612 5611 5611 5610 5609 5609 5608 5607 5607 5606 5606 5605 5605 5604 5603 5602 5602 5601 5601 5600 5599
5670 5668 5668 5668 5667 5667 5666 5666 5666 5665 5663 5662 5660 5659 5657 5655 5654 5652 5651 5650 5648 5647 5646 5645 5643 5642 5641 5639 5638 5637 5635 5634 5633 5631 5630 5628 5627 5626 5624 5623 5623 5622 5621 5621 5620 5619 5619 5619 5618 5617 5617 5616 5616 5615 5614 5613 5613 5612 5611 5611 5610 5610 5610 5609 5609 5608 5608 5607 5606 5606 5605 5605 5604 5604 5603 5603 5602 5602 5601 5601 5600 5600 5599 5599 5598
5666 5664 5663 5663 5662 5662 5662 5661 5660 5659 5657 5656 5654 5653 5651 5650 5648 5647 5646 5645 5643 5642 5641 5639 5638 5637 5635 5634 5633 5632 5630 5629 5628 5626 5625 5623 5622 5621 5620 5619 5618 5618 5617 5617 5616 5615 5615 5615 5614 5613 5613 5612 5612 5611 5610 5610 5609 5608 5608 5607 5607 5606 5606 5605 5605 5605 5604 5604 5603 5603 5602 5602 5601 5601 5601 5600 5600 5600 5599 5599 5598 5598 5598 5597 5597
5661 5659 5659 5658 5658 5657 5656 5655 5654 5653 5651 5650 5649 5647 5646 5645 5644 5642 5641 5640 5638 5637 5636 5634 5633 5632 5631 5629 5628 5627 5625 5624 5623 5622 5620 5619 5617 5616 5616 5615 5614 5614 5613 5613 5612 5612 5611 5611 5610 5609 5609 5609 5608 5607 5607 5606 5605 5605 5604 5604 5603 5603 5602 5602 5601 5601 5601 5601 5600 5600 5599 5599 5598 5598 5598 5598 5597 5597 5597 5597 5597 5596 5596 5596 5596
5655 5655 5655 5654 5653 5652 5651 5650 5649 5647 5646 5645 5644 5643 5641 5640 5639 5638 5637 5635 5634 5633 5631 5630 5629 5627 5626 5625 5623 5622 5621 5620 5619 5617 5616 5614 5613 5612 5612 5611 5610 5610 5609 5609 5608 5608 5608 5607 5607 5606 5605 5605 5604 5604 5603 5602 5602 5601 5600 5600 5599 5599 5598 5598 5597 5597 5597 5597 5597 5596 5596 5596 5595 5595 5595 5595 5594 5594 5594 5594 5594 5594 5594 5594 5594
5651 5651 5650 5649 5648 5647 5645 5644 5643 5642 5641 5640 5639 5638 5637 5636 5635 5634 5632 5631 5630 5628 5627 5626 5624 5623 5622 5620 5619 5617 5616 5615 5614 5613 5612 5610 5609 5608 5607 5607 5606 5606 5605 5605 5604 5604 5604 5604 5603 5602 5602 5601 5601 5600 5600 5599 5598 5598 5597 5596 5595 5595 5594 5594 5593 5593 5593 5593 5593 5592 5592 5592 5592 5592 5591 5591 5591 5591 5591 5591 5591 5591 5591 5592 5592
5646 5646 5645 5644 5643 5642 5641 5639 5638 5637 5637 5636 5635 5634 5633 5632 5631 5630 5628 5627 5626 5624 5623 5622 5620 5619 5617 5616 5614 5613 5612 5611 5609 5608 5607 5606 5605 5604 5603 5603 5602 5602 5601 5600 5600 5600 5600 5600 5599 5599 5598 5597 5597 5597 5596 5595 5595 5594 5593 5592 5591 5590 5590 5590 5589 5589 5589 5588 5588 5588 5588 5588 5588 5588 5588 5588 5588 5588 5589 5589 5589 5589 5589 5589 5589
5641 5640 5640 5639 5638 5637 5636 5635 5634 5633 5632 5631 5630 5629 5629 5628 5627 5626 5624 5623 5622 5621 5620 5618 5617 5615 5613 5612 5610 5609 5608 5606 5605 5605 5604 5602 5601 5600 5600 5599 5599 5598 5597 5597 5597 5597 5597 5596 5596 5595 5594 5594 5593 5593 5593 5592 5591 5590 5589 5588 5587 5586 5586 5586 5585 5585 5585 5584 5584 5584 5584 5584 5584 5584 5585 5585 5585 5585 5585 5586 5586 5586 5586 5586 5587
5635 5635 5634 5634 5633 5632 5631 5630 5629 5628 5627 5627 5626 5625 5624 5623 5622 5622 5621 5620 5618 5617 5616 5615 5613 5611 5610 5608 5607 5605 5604 5603 5602 5601 5600 5599 5598 5597 5596 5596 5595 5595 5594 5594 5594 5594 5594 5593 5592 5591 5591 5590 5590 5590 5589 5588 5587 5586 5586 5585 5584 5583 5583 5582 5582 5581 5581 5581 5580 5580 5580 5580 5581 5581 5581 5581 5581 5582 5582 5583 5583 5583 5583 5583 5584